owner,sensor,date,latitude,longitude,vertical_datum,sea_water_practical_salinity,qcFlag 
TABS,ioos:station:wmo:42050:1,2011-09-01T00:00:00Z,28.8425,-94.2433,2.0,36.4695,11111222 
TABS,ioos:station:wmo:42050:1,2011-09-01T00:30:00Z,28.8425,-94.2433,2.0,36.4719,11111222 
TABS,ioos:station:wmo:42050:1,2011-09-01T01:00:00Z,28.8425,-94.2433,2.0,36.4722,11111222 
TABS,ioos:station:wmo:42050:1,2011-09-01T01:30:00Z,28.8425,-94.2433,2.0,36.4726,11111222 
TABS,ioos:station:wmo:42050:1,2011-09-01T02:00:00Z,28.8425,-94.2433,2.0,36.4729,11111222 
TABS,ioos:station:wmo:42050:1,2011-09-01T02:30:00Z,28.8425,-94.2433,2.0,36.4705,11111222 
TABS,ioos:station:wmo:42050:1,2011-09-01T03:00:00Z,28.8425,-94.2433,2.0,36.469,11111222 
TABS,ioos:station:wmo:42050:1,2011-09-01T03:30:00Z,28.8425,-94.2433,2.0,36.4666,11111222 
TABS,ioos:station:wmo:42050:1,2011-09-01T04:00:00Z,28.8425,-94.2433,2.0,36.4659,11111222 
TABS,ioos:station:wmo:42050:1,2011-09-01T04:30:00Z,28.8425,-94.2433,2.0,36.4649,11111222 
TABS,ioos:station:wmo:42050:1,2011-09-01T05:00:00Z,28.8425,-94.2433,2.0,36.4665,11111222 
TABS,ioos:station:wmo:42050:1,2011-09-01T05:30:00Z,28.8425,-94.2433,2.0,36.466,11111222 
TABS,ioos:station:wmo:42050:1,2011-09-01T06:00:00Z,28.8425,-94.2433,2.0,36.4657,11111222 
TABS,ioos:station:wmo:42050:1,2011-09-01T06:30:00Z,28.8425,-94.2433,2.0,36.4654,11111222 
TABS,ioos:station:wmo:42050:1,2011-09-01T07:00:00Z,28.8425,-94.2433,2.0,36.4637,11111222 
TABS,ioos:station:wmo:42050:1,2011-09-01T07:30:00Z,28.8425,-94.2433,2.0,36.4658,11111222 
TABS,ioos:station:wmo:42050:1,2011-09-01T08:00:00Z,28.8425,-94.2433,2.0,36.4655,11111222 
TABS,ioos:station:wmo:42050:1,2011-09-01T08:30:00Z,28.8425,-94.2433,2.0,36.4677,11111222 
TABS,ioos:station:wmo:42050:1,2011-09-01T09:00:00Z,28.8425,-94.2433,2.0,36.4692,11111222 
TABS,ioos:station:wmo:42050:1,2011-09-01T09:30:00Z,28.8425,-94.2433,2.0,36.47,11111222 
TABS,ioos:station:wmo:42050:1,2011-09-01T10:00:00Z,28.8425,-94.2433,2.0,36.4701,11111222 
TABS,ioos:station:wmo:42050:1,2011-09-01T10:30:00Z,28.8425,-94.2433,2.0,36.4691,11111222 
TABS,ioos:station:wmo:42050:1,2011-09-01T11:00:00Z,28.8425,-94.2433,2.0,36.469,11111222 
TABS,ioos:station:wmo:42050:1,2011-09-01T11:30:00Z,28.8425,-94.2433,2.0,36.4681,11111222 
TABS,ioos:station:wmo:42050:1,2011-09-01T12:00:00Z,28.8425,-94.2433,2.0,36.466,11111222 
TABS,ioos:station:wmo:42050:1,2011-09-01T12:30:00Z,28.8425,-94.2433,2.0,36.4719,11111222 
TABS,ioos:station:wmo:42050:1,2011-09-01T13:00:00Z,28.8425,-94.2433,2.0,36.4767,11111222 
TABS,ioos:station:wmo:42050:1,2011-09-01T13:30:00Z,28.8425,-94.2433,2.0,36.4772,11111222 
TABS,ioos:station:wmo:42050:1,2011-09-01T14:00:00Z,28.8425,-94.2433,2.0,36.4858,11111222 
TABS,ioos:station:wmo:42050:1,2011-09-01T14:30:00Z,28.8425,-94.2433,2.0,36.4991,11111222 
TABS,ioos:station:wmo:42050:1,2011-09-01T15:00:00Z,28.8425,-94.2433,2.0,36.4984,11111222 
TABS,ioos:station:wmo:42050:1,2011-09-01T15:30:00Z,28.8425,-94.2433,2.0,36.5027,11111222 
TABS,ioos:station:wmo:42050:1,2011-09-01T16:00:00Z,28.8425,-94.2433,2.0,36.5031,11111222 
TABS,ioos:station:wmo:42050:1,2011-09-01T16:30:00Z,28.8425,-94.2433,2.0,36.5209,11111222 
TABS,ioos:station:wmo:42050:1,2011-09-01T17:00:00Z,28.8425,-94.2433,2.0,36.526,11111222 
TABS,ioos:station:wmo:42050:1,2011-09-01T17:30:00Z,28.8425,-94.2433,2.0,36.5261,11111222 
TABS,ioos:station:wmo:42050:1,2011-09-01T18:00:00Z,28.8425,-94.2433,2.0,36.5249,11111222 
TABS,ioos:station:wmo:42050:1,2011-09-01T18:30:00Z,28.8425,-94.2433,2.0,36.5217,11111222 
TABS,ioos:station:wmo:42050:1,2011-09-01T19:00:00Z,28.8425,-94.2433,2.0,36.5182,11111222 
TABS,ioos:station:wmo:42050:1,2011-09-01T19:30:00Z,28.8425,-94.2433,2.0,36.5202,11111222 
TABS,ioos:station:wmo:42050:1,2011-09-01T20:00:00Z,28.8425,-94.2433,2.0,36.5236,11111222 
TABS,ioos:station:wmo:42050:1,2011-09-01T20:30:00Z,28.8425,-94.2433,2.0,36.5279,11111222 
TABS,ioos:station:wmo:42050:1,2011-09-01T21:00:00Z,28.8425,-94.2433,2.0,36.5186,11111222 
TABS,ioos:station:wmo:42050:1,2011-09-01T21:30:00Z,28.8425,-94.2433,2.0,36.5173,11111222 
TABS,ioos:station:wmo:42050:1,2011-09-01T22:00:00Z,28.8425,-94.2433,2.0,36.5134,11111222 
TABS,ioos:station:wmo:42050:1,2011-09-01T22:30:00Z,28.8425,-94.2433,2.0,36.5102,11111222 
TABS,ioos:station:wmo:42050:1,2011-09-01T23:00:00Z,28.8425,-94.2433,2.0,36.508,11111222 
TABS,ioos:station:wmo:42050:1,2011-09-01T23:30:00Z,28.8425,-94.2433,2.0,36.5097,11111222 
TABS,ioos:station:wmo:42050:1,2011-09-02T00:00:00Z,28.8425,-94.2433,2.0,36.5056,11111222 
TABS,ioos:station:wmo:42050:1,2011-09-02T00:30:00Z,28.8425,-94.2433,2.0,36.5068,11111222 
TABS,ioos:station:wmo:42050:1,2011-09-02T01:00:00Z,28.8425,-94.2433,2.0,36.5136,11111222 
TABS,ioos:station:wmo:42050:1,2011-09-02T01:30:00Z,28.8425,-94.2433,2.0,36.5134,11111222 
TABS,ioos:station:wmo:42050:1,2011-09-02T02:00:00Z,28.8425,-94.2433,2.0,36.5064,11111222 
TABS,ioos:station:wmo:42050:1,2011-09-02T02:30:00Z,28.8425,-94.2433,2.0,36.5,11111222 
TABS,ioos:station:wmo:42050:1,2011-09-02T03:00:00Z,28.8425,-94.2433,2.0,36.4853,11111222 
TABS,ioos:station:wmo:42050:1,2011-09-02T03:30:00Z,28.8425,-94.2433,2.0,36.4689,11111222 
TABS,ioos:station:wmo:42050:1,2011-09-02T04:00:00Z,28.8425,-94.2433,2.0,36.4496,11111222 
TABS,ioos:station:wmo:42050:1,2011-09-02T04:30:00Z,28.8425,-94.2433,2.0,36.4305,11111222 
TABS,ioos:station:wmo:42050:1,2011-09-02T05:00:00Z,28.8425,-94.2433,2.0,36.4105,11111222 
TABS,ioos:station:wmo:42050:1,2011-09-02T05:30:00Z,28.8425,-94.2433,2.0,36.3965,11111222 
TABS,ioos:station:wmo:42050:1,2011-09-02T06:00:00Z,28.8425,-94.2433,2.0,36.3839,11111222 
TABS,ioos:station:wmo:42050:1,2011-09-02T06:30:00Z,28.8425,-94.2433,2.0,36.3681,11111222 
TABS,ioos:station:wmo:42050:1,2011-09-02T07:00:00Z,28.8425,-94.2433,2.0,36.3657,11111222 
TABS,ioos:station:wmo:42050:1,2011-09-02T07:30:00Z,28.8425,-94.2433,2.0,36.3703,11111222 
TABS,ioos:station:wmo:42050:1,2011-09-02T08:00:00Z,28.8425,-94.2433,2.0,36.3804,11111222 
TABS,ioos:station:wmo:42050:1,2011-09-02T08:30:00Z,28.8425,-94.2433,2.0,36.3821,11111222 
TABS,ioos:station:wmo:42050:1,2011-09-02T09:00:00Z,28.8425,-94.2433,2.0,36.3874,11111222 
TABS,ioos:station:wmo:42050:1,2011-09-02T09:30:00Z,28.8425,-94.2433,2.0,36.4014,11111222 
TABS,ioos:station:wmo:42050:1,2011-09-02T10:00:00Z,28.8425,-94.2433,2.0,36.4262,11111222 
TABS,ioos:station:wmo:42050:1,2011-09-02T10:30:00Z,28.8425,-94.2433,2.0,36.4642,11111222 
TABS,ioos:station:wmo:42050:1,2011-09-02T11:00:00Z,28.8425,-94.2433,2.0,36.4727,11111222 
TABS,ioos:station:wmo:42050:1,2011-09-02T11:30:00Z,28.8425,-94.2433,2.0,36.4647,11111222 
TABS,ioos:station:wmo:42050:1,2011-09-02T12:00:00Z,28.8425,-94.2433,2.0,36.4554,11111222 
TABS,ioos:station:wmo:42050:1,2011-09-02T12:30:00Z,28.8425,-94.2433,2.0,36.4062,11111222 
TABS,ioos:station:wmo:42050:1,2011-09-02T13:00:00Z,28.8425,-94.2433,2.0,36.3914,11111222 
TABS,ioos:station:wmo:42050:1,2011-09-02T13:30:00Z,28.8425,-94.2433,2.0,36.3894,11111222 
TABS,ioos:station:wmo:42050:1,2011-09-02T14:00:00Z,28.8425,-94.2433,2.0,36.3639,11111222 
TABS,ioos:station:wmo:42050:1,2011-09-02T14:30:00Z,28.8425,-94.2433,2.0,36.3359,11111222 
TABS,ioos:station:wmo:42050:1,2011-09-02T15:00:00Z,28.8425,-94.2433,2.0,36.3104,11111222 
TABS,ioos:station:wmo:42050:1,2011-09-02T15:30:00Z,28.8425,-94.2433,2.0,36.2876,11111222 
TABS,ioos:station:wmo:42050:1,2011-09-02T16:00:00Z,28.8425,-94.2433,2.0,36.2734,11111222 
TABS,ioos:station:wmo:42050:1,2011-09-02T16:30:00Z,28.8425,-94.2433,2.0,36.2585,11111222 
TABS,ioos:station:wmo:42050:1,2011-09-02T17:00:00Z,28.8425,-94.2433,2.0,36.2532,11111222 
TABS,ioos:station:wmo:42050:1,2011-09-02T17:30:00Z,28.8425,-94.2433,2.0,36.2447,11111222 
TABS,ioos:station:wmo:42050:1,2011-09-02T18:00:00Z,28.8425,-94.2433,2.0,36.2413,11111222 
TABS,ioos:station:wmo:42050:1,2011-09-02T18:30:00Z,28.8425,-94.2433,2.0,36.2428,11111222 
TABS,ioos:station:wmo:42050:1,2011-09-02T19:00:00Z,28.8425,-94.2433,2.0,36.2433,11111222 
TABS,ioos:station:wmo:42050:1,2011-09-02T19:30:00Z,28.8425,-94.2433,2.0,36.2475,11111222 
TABS,ioos:station:wmo:42050:1,2011-09-02T20:00:00Z,28.8425,-94.2433,2.0,36.2495,11111222 
TABS,ioos:station:wmo:42050:1,2011-09-02T20:30:00Z,28.8425,-94.2433,2.0,36.2545,11111222 
TABS,ioos:station:wmo:42050:1,2011-09-02T21:00:00Z,28.8425,-94.2433,2.0,36.2611,11111222 
TABS,ioos:station:wmo:42050:1,2011-09-02T21:30:00Z,28.8425,-94.2433,2.0,36.2624,11111222 
TABS,ioos:station:wmo:42050:1,2011-09-02T22:00:00Z,28.8425,-94.2433,2.0,36.2666,11111222 
TABS,ioos:station:wmo:42050:1,2011-09-02T22:30:00Z,28.8425,-94.2433,2.0,36.2545,11111222 
TABS,ioos:station:wmo:42050:1,2011-09-02T23:00:00Z,28.8425,-94.2433,2.0,36.2454,11111222 
TABS,ioos:station:wmo:42050:1,2011-09-02T23:30:00Z,28.8425,-94.2433,2.0,36.2352,11111222 
TABS,ioos:station:wmo:42050:1,2011-09-03T00:00:00Z,28.8425,-94.2433,2.0,36.2298,11111222 
TABS,ioos:station:wmo:42050:1,2011-09-03T00:30:00Z,28.8425,-94.2433,2.0,36.2305,11111222 
TABS,ioos:station:wmo:42050:1,2011-09-03T01:00:00Z,28.8425,-94.2433,2.0,36.2297,11111222 
TABS,ioos:station:wmo:42050:1,2011-09-03T01:30:00Z,28.8425,-94.2433,2.0,36.2186,11111222 
TABS,ioos:station:wmo:42050:1,2011-09-03T02:00:00Z,28.8425,-94.2433,2.0,36.2111,11111222 
TABS,ioos:station:wmo:42050:1,2011-09-03T02:30:00Z,28.8425,-94.2433,2.0,36.2037,11111222 
TABS,ioos:station:wmo:42050:1,2011-09-03T03:00:00Z,28.8425,-94.2433,2.0,36.1855,11111222 
TABS,ioos:station:wmo:42050:1,2011-09-03T03:30:00Z,28.8425,-94.2433,2.0,36.1761,11111222 
TABS,ioos:station:wmo:42050:1,2011-09-03T04:00:00Z,28.8425,-94.2433,2.0,36.1566,11111222 
TABS,ioos:station:wmo:42050:1,2011-09-03T04:30:00Z,28.8425,-94.2433,2.0,36.1399,11111222 
TABS,ioos:station:wmo:42050:1,2011-09-03T05:00:00Z,28.8425,-94.2433,2.0,36.1211,11111222 
TABS,ioos:station:wmo:42050:1,2011-09-03T05:30:00Z,28.8425,-94.2433,2.0,36.107,11111222 
TABS,ioos:station:wmo:42050:1,2011-09-03T06:00:00Z,28.8425,-94.2433,2.0,36.1111,11111222 
TABS,ioos:station:wmo:42050:1,2011-09-03T06:30:00Z,28.8425,-94.2433,2.0,36.1134,11111222 
TABS,ioos:station:wmo:42050:1,2011-09-03T07:00:00Z,28.8425,-94.2433,2.0,36.1176,11111222 
TABS,ioos:station:wmo:42050:1,2011-09-03T07:30:00Z,28.8425,-94.2433,2.0,36.1179,11111222 
TABS,ioos:station:wmo:42050:1,2011-09-03T08:00:00Z,28.8425,-94.2433,2.0,36.1196,11111222 
TABS,ioos:station:wmo:42050:1,2011-09-03T08:30:00Z,28.8425,-94.2433,2.0,36.1177,11111222 
TABS,ioos:station:wmo:42050:1,2011-09-03T09:00:00Z,28.8425,-94.2433,2.0,36.1147,11111222 
TABS,ioos:station:wmo:42050:1,2011-09-03T09:30:00Z,28.8425,-94.2433,2.0,36.1145,11111222 
TABS,ioos:station:wmo:42050:1,2011-09-03T10:00:00Z,28.8425,-94.2433,2.0,36.1218,11111222 
TABS,ioos:station:wmo:42050:1,2011-09-03T10:30:00Z,28.8425,-94.2433,2.0,36.1351,11111222 
TABS,ioos:station:wmo:42050:1,2011-09-03T11:00:00Z,28.8425,-94.2433,2.0,36.1393,11111222 
TABS,ioos:station:wmo:42050:1,2011-09-03T11:30:00Z,28.8425,-94.2433,2.0,36.1412,11111222 
TABS,ioos:station:wmo:42050:1,2011-09-03T12:00:00Z,28.8425,-94.2433,2.0,36.1427,11111222 
TABS,ioos:station:wmo:42050:1,2011-09-03T12:30:00Z,28.8425,-94.2433,2.0,36.151,11111222 
TABS,ioos:station:wmo:42050:1,2011-09-03T13:00:00Z,28.8425,-94.2433,2.0,36.1526,11111222 
TABS,ioos:station:wmo:42050:1,2011-09-03T13:30:00Z,28.8425,-94.2433,2.0,36.1499,11111222 
TABS,ioos:station:wmo:42050:1,2011-09-03T14:00:00Z,28.8425,-94.2433,2.0,36.1452,11111222 
TABS,ioos:station:wmo:42050:1,2011-09-03T14:30:00Z,28.8425,-94.2433,2.0,36.1429,11111222 
TABS,ioos:station:wmo:42050:1,2011-09-03T15:00:00Z,28.8425,-94.2433,2.0,36.131,11111222 
TABS,ioos:station:wmo:42050:1,2011-09-03T17:00:00Z,28.8425,-94.2433,2.0,36.1082,11111222 
TABS,ioos:station:wmo:42050:1,2011-09-03T17:30:00Z,28.8425,-94.2433,2.0,36.1082,11111222 
TABS,ioos:station:wmo:42050:1,2011-09-03T18:00:00Z,28.8425,-94.2433,2.0,36.1091,11111222 
TABS,ioos:station:wmo:42050:1,2011-09-03T18:30:00Z,28.8425,-94.2433,2.0,36.1105,11111222 
TABS,ioos:station:wmo:42050:1,2011-09-03T19:00:00Z,28.8425,-94.2433,2.0,36.1114,11111222 
TABS,ioos:station:wmo:42050:1,2011-09-03T19:30:00Z,28.8425,-94.2433,2.0,36.1136,11111222 
TABS,ioos:station:wmo:42050:1,2011-09-03T20:00:00Z,28.8425,-94.2433,2.0,36.1126,11111222 
TABS,ioos:station:wmo:42050:1,2011-09-03T20:30:00Z,28.8425,-94.2433,2.0,36.1181,11111222 
TABS,ioos:station:wmo:42050:1,2011-09-03T21:00:00Z,28.8425,-94.2433,2.0,36.1217,11111222 
TABS,ioos:station:wmo:42050:1,2011-09-03T21:30:00Z,28.8425,-94.2433,2.0,36.1347,11111222 
TABS,ioos:station:wmo:42050:1,2011-09-03T22:00:00Z,28.8425,-94.2433,2.0,36.1344,11111222 
TABS,ioos:station:wmo:42050:1,2011-09-03T22:30:00Z,28.8425,-94.2433,2.0,36.137,11111222 
TABS,ioos:station:wmo:42050:1,2011-09-03T23:00:00Z,28.8425,-94.2433,2.0,36.1406,11111222 
TABS,ioos:station:wmo:42050:1,2011-09-03T23:30:00Z,28.8425,-94.2433,2.0,36.1379,11111222 
TABS,ioos:station:wmo:42050:1,2011-09-04T00:00:00Z,28.8425,-94.2433,2.0,36.1419,11111222 
TABS,ioos:station:wmo:42050:1,2011-09-04T00:30:00Z,28.8425,-94.2433,2.0,36.1404,11111222 
TABS,ioos:station:wmo:42050:1,2011-09-04T01:00:00Z,28.8425,-94.2433,2.0,36.1428,11111222 
TABS,ioos:station:wmo:42050:1,2011-09-04T04:30:00Z,28.8425,-94.2433,2.0,36.1264,11111222 
TABS,ioos:station:wmo:42050:1,2011-09-04T05:00:00Z,28.8425,-94.2433,2.0,36.1224,11111222 
TABS,ioos:station:wmo:42050:1,2011-09-04T05:30:00Z,28.8425,-94.2433,2.0,36.1239,11111222 
TABS,ioos:station:wmo:42050:1,2011-09-04T06:00:00Z,28.8425,-94.2433,2.0,36.1114,11111222 
TABS,ioos:station:wmo:42050:1,2011-09-04T06:30:00Z,28.8425,-94.2433,2.0,36.1158,11111222 
TABS,ioos:station:wmo:42050:1,2011-09-04T07:00:00Z,28.8425,-94.2433,2.0,36.1183,11111222 
TABS,ioos:station:wmo:42050:1,2011-09-04T07:30:00Z,28.8425,-94.2433,2.0,36.1144,11111222 
TABS,ioos:station:wmo:42050:1,2011-09-04T08:00:00Z,28.8425,-94.2433,2.0,36.1151,11111222 
TABS,ioos:station:wmo:42050:1,2011-09-04T08:30:00Z,28.8425,-94.2433,2.0,36.11,11111222 
TABS,ioos:station:wmo:42050:1,2011-09-04T09:00:00Z,28.8425,-94.2433,2.0,36.1126,11111222 
TABS,ioos:station:wmo:42050:1,2011-09-04T09:30:00Z,28.8425,-94.2433,2.0,36.1129,11111222 
TABS,ioos:station:wmo:42050:1,2011-09-04T10:00:00Z,28.8425,-94.2433,2.0,36.1168,11111222 
TABS,ioos:station:wmo:42050:1,2011-09-04T10:30:00Z,28.8425,-94.2433,2.0,36.1112,11111222 
TABS,ioos:station:wmo:42050:1,2011-09-04T11:00:00Z,28.8425,-94.2433,2.0,36.1165,11111222 
TABS,ioos:station:wmo:42050:1,2011-09-04T11:30:00Z,28.8425,-94.2433,2.0,36.1156,11111222 
TABS,ioos:station:wmo:42050:1,2011-09-04T12:00:00Z,28.8425,-94.2433,2.0,36.1166,11111222 
TABS,ioos:station:wmo:42050:1,2011-09-04T12:30:00Z,28.8425,-94.2433,2.0,36.1126,11111222 
TABS,ioos:station:wmo:42050:1,2011-09-04T13:00:00Z,28.8425,-94.2433,2.0,36.1155,11111222 
TABS,ioos:station:wmo:42050:1,2011-09-04T13:30:00Z,28.8425,-94.2433,2.0,36.1171,11111222 
TABS,ioos:station:wmo:42050:1,2011-09-04T14:00:00Z,28.8425,-94.2433,2.0,36.1113,11111222 
TABS,ioos:station:wmo:42050:1,2011-09-04T14:30:00Z,28.8425,-94.2433,2.0,36.1077,11111222 
TABS,ioos:station:wmo:42050:1,2011-09-04T15:00:00Z,28.8425,-94.2433,2.0,36.0986,11111222 
TABS,ioos:station:wmo:42050:1,2011-09-04T15:30:00Z,28.8425,-94.2433,2.0,36.1089,11111222 
TABS,ioos:station:wmo:42050:1,2011-09-04T16:00:00Z,28.8425,-94.2433,2.0,36.1093,11111222 
TABS,ioos:station:wmo:42050:1,2011-09-04T16:30:00Z,28.8425,-94.2433,2.0,36.1079,11111222 
TABS,ioos:station:wmo:42050:1,2011-09-04T17:00:00Z,28.8425,-94.2433,2.0,36.1236,11111222 
TABS,ioos:station:wmo:42050:1,2011-09-04T17:30:00Z,28.8425,-94.2433,2.0,36.1297,11111222 
TABS,ioos:station:wmo:42050:1,2011-09-04T18:00:00Z,28.8425,-94.2433,2.0,36.1445,11111222 
TABS,ioos:station:wmo:42050:1,2011-09-04T18:30:00Z,28.8425,-94.2433,2.0,36.1489,11111222 
TABS,ioos:station:wmo:42050:1,2011-09-04T19:00:00Z,28.8425,-94.2433,2.0,36.1547,11111222 
TABS,ioos:station:wmo:42050:1,2011-09-04T19:30:00Z,28.8425,-94.2433,2.0,36.1475,11111222 
TABS,ioos:station:wmo:42050:1,2011-09-04T20:00:00Z,28.8425,-94.2433,2.0,36.1467,11111222 
TABS,ioos:station:wmo:42050:1,2011-09-04T20:30:00Z,28.8425,-94.2433,2.0,36.146,11111222 
TABS,ioos:station:wmo:42050:1,2011-09-04T21:00:00Z,28.8425,-94.2433,2.0,36.1534,11111222 
TABS,ioos:station:wmo:42050:1,2011-09-04T21:30:00Z,28.8425,-94.2433,2.0,36.161,11111222 
TABS,ioos:station:wmo:42050:1,2011-09-04T22:00:00Z,28.8425,-94.2433,2.0,36.1638,11111222 
TABS,ioos:station:wmo:42050:1,2011-09-04T22:30:00Z,28.8425,-94.2433,2.0,36.1696,11111222 
TABS,ioos:station:wmo:42050:1,2011-09-04T23:00:00Z,28.8425,-94.2433,2.0,36.1689,11111222 
TABS,ioos:station:wmo:42050:1,2011-09-04T23:30:00Z,28.8425,-94.2433,2.0,36.17,11111222 
TABS,ioos:station:wmo:42050:1,2011-09-05T00:00:00Z,28.8425,-94.2433,2.0,36.1736,11111222 
TABS,ioos:station:wmo:42050:1,2011-09-05T00:30:00Z,28.8425,-94.2433,2.0,36.1716,11111222 
TABS,ioos:station:wmo:42050:1,2011-09-05T01:00:00Z,28.8425,-94.2433,2.0,36.1729,11111222 
TABS,ioos:station:wmo:42050:1,2011-09-05T01:30:00Z,28.8425,-94.2433,2.0,36.172,11111222 
TABS,ioos:station:wmo:42050:1,2011-09-05T02:00:00Z,28.8425,-94.2433,2.0,36.172,11111222 
TABS,ioos:station:wmo:42050:1,2011-09-05T02:30:00Z,28.8425,-94.2433,2.0,36.1755,11111222 
TABS,ioos:station:wmo:42050:1,2011-09-05T03:00:00Z,28.8425,-94.2433,2.0,36.1718,11111222 
TABS,ioos:station:wmo:42050:1,2011-09-05T03:30:00Z,28.8425,-94.2433,2.0,36.1703,11111222 
TABS,ioos:station:wmo:42050:1,2011-09-05T04:00:00Z,28.8425,-94.2433,2.0,36.1713,11111222 
TABS,ioos:station:wmo:42050:1,2011-09-05T04:30:00Z,28.8425,-94.2433,2.0,36.1739,11111222 
TABS,ioos:station:wmo:42050:1,2011-09-05T05:00:00Z,28.8425,-94.2433,2.0,36.1722,11111222 
TABS,ioos:station:wmo:42050:1,2011-09-05T05:30:00Z,28.8425,-94.2433,2.0,36.176,11111222 
TABS,ioos:station:wmo:42050:1,2011-09-05T06:00:00Z,28.8425,-94.2433,2.0,36.1771,11111222 
TABS,ioos:station:wmo:42050:1,2011-09-05T06:30:00Z,28.8425,-94.2433,2.0,36.1814,11111222 
TABS,ioos:station:wmo:42050:1,2011-09-05T07:00:00Z,28.8425,-94.2433,2.0,36.1919,11111222 
TABS,ioos:station:wmo:42050:1,2011-09-05T07:30:00Z,28.8425,-94.2433,2.0,36.2107,11111222 
TABS,ioos:station:wmo:42050:1,2011-09-05T08:00:00Z,28.8425,-94.2433,2.0,36.2189,11111222 
TABS,ioos:station:wmo:42050:1,2011-09-05T08:30:00Z,28.8425,-94.2433,2.0,36.2241,11111222 
TABS,ioos:station:wmo:42050:1,2011-09-05T09:00:00Z,28.8425,-94.2433,2.0,36.228,11111222 
TABS,ioos:station:wmo:42050:1,2011-09-05T09:30:00Z,28.8425,-94.2433,2.0,36.2211,11111222 
TABS,ioos:station:wmo:42050:1,2011-09-05T10:00:00Z,28.8425,-94.2433,2.0,36.2194,11111222 
TABS,ioos:station:wmo:42050:1,2011-09-05T10:30:00Z,28.8425,-94.2433,2.0,36.2119,11111222 
TABS,ioos:station:wmo:42050:1,2011-09-05T11:00:00Z,28.8425,-94.2433,2.0,36.2049,11111222 
TABS,ioos:station:wmo:42050:1,2011-09-05T11:30:00Z,28.8425,-94.2433,2.0,36.1934,11111222 
TABS,ioos:station:wmo:42050:1,2011-09-05T12:00:00Z,28.8425,-94.2433,2.0,36.186,11111222 
TABS,ioos:station:wmo:42050:1,2011-09-05T12:30:00Z,28.8425,-94.2433,2.0,36.1803,11111222 
TABS,ioos:station:wmo:42050:1,2011-09-05T13:00:00Z,28.8425,-94.2433,2.0,36.1721,11111222 
TABS,ioos:station:wmo:42050:1,2011-09-05T13:30:00Z,28.8425,-94.2433,2.0,36.1685,11111222 
TABS,ioos:station:wmo:42050:1,2011-09-05T14:00:00Z,28.8425,-94.2433,2.0,36.1649,11111222 
TABS,ioos:station:wmo:42050:1,2011-09-05T14:30:00Z,28.8425,-94.2433,2.0,36.165,11111222 
TABS,ioos:station:wmo:42050:1,2011-09-05T15:00:00Z,28.8425,-94.2433,2.0,36.1628,11111222 
TABS,ioos:station:wmo:42050:1,2011-09-05T15:30:00Z,28.8425,-94.2433,2.0,36.1663,11111222 
TABS,ioos:station:wmo:42050:1,2011-09-05T16:00:00Z,28.8425,-94.2433,2.0,36.1673,11111222 
TABS,ioos:station:wmo:42050:1,2011-09-05T16:30:00Z,28.8425,-94.2433,2.0,36.1647,11111222 
TABS,ioos:station:wmo:42050:1,2011-09-05T17:00:00Z,28.8425,-94.2433,2.0,36.1653,11111222 
TABS,ioos:station:wmo:42050:1,2011-09-05T17:30:00Z,28.8425,-94.2433,2.0,36.1697,11111222 
TABS,ioos:station:wmo:42050:1,2011-09-05T18:00:00Z,28.8425,-94.2433,2.0,36.1423,11111222 
TABS,ioos:station:wmo:42050:1,2011-09-05T18:30:00Z,28.8425,-94.2433,2.0,36.1166,11111222 
TABS,ioos:station:wmo:42050:1,2011-09-05T19:00:00Z,28.8425,-94.2433,2.0,36.1158,11111222 
TABS,ioos:station:wmo:42050:1,2011-09-05T19:30:00Z,28.8425,-94.2433,2.0,36.1185,11111222 
TABS,ioos:station:wmo:42050:1,2011-09-05T20:00:00Z,28.8425,-94.2433,2.0,36.1185,11111222 
TABS,ioos:station:wmo:42050:1,2011-09-05T20:30:00Z,28.8425,-94.2433,2.0,36.1144,11111222 
TABS,ioos:station:wmo:42050:1,2011-09-05T21:00:00Z,28.8425,-94.2433,2.0,36.0952,11111222 
TABS,ioos:station:wmo:42050:1,2011-09-05T21:30:00Z,28.8425,-94.2433,2.0,36.0941,11111222 
TABS,ioos:station:wmo:42050:1,2011-09-05T22:00:00Z,28.8425,-94.2433,2.0,36.0912,11111222 
TABS,ioos:station:wmo:42050:1,2011-09-05T22:30:00Z,28.8425,-94.2433,2.0,36.0881,11111222 
TABS,ioos:station:wmo:42050:1,2011-09-05T23:00:00Z,28.8425,-94.2433,2.0,36.0755,11111222 
TABS,ioos:station:wmo:42050:1,2011-09-05T23:30:00Z,28.8425,-94.2433,2.0,36.0818,11111222 
TABS,ioos:station:wmo:42050:1,2011-09-06T00:00:00Z,28.8425,-94.2433,2.0,36.0968,11111222 
TABS,ioos:station:wmo:42050:1,2011-09-06T00:30:00Z,28.8425,-94.2433,2.0,36.1137,11111222 
TABS,ioos:station:wmo:42050:1,2011-09-06T01:00:00Z,28.8425,-94.2433,2.0,36.149,11111222 
TABS,ioos:station:wmo:42050:1,2011-09-06T01:30:00Z,28.8425,-94.2433,2.0,36.1506,11111222 
TABS,ioos:station:wmo:42050:1,2011-09-06T02:00:00Z,28.8425,-94.2433,2.0,36.163,11111222 
TABS,ioos:station:wmo:42050:1,2011-09-06T02:30:00Z,28.8425,-94.2433,2.0,36.1747,11111222 
TABS,ioos:station:wmo:42050:1,2011-09-06T03:00:00Z,28.8425,-94.2433,2.0,36.1754,11111222 
TABS,ioos:station:wmo:42050:1,2011-09-06T03:30:00Z,28.8425,-94.2433,2.0,36.1922,11111222 
TABS,ioos:station:wmo:42050:1,2011-09-06T04:00:00Z,28.8425,-94.2433,2.0,36.2035,11111222 
TABS,ioos:station:wmo:42050:1,2011-09-06T04:30:00Z,28.8425,-94.2433,2.0,36.2046,11111222 
TABS,ioos:station:wmo:42050:1,2011-09-06T05:00:00Z,28.8425,-94.2433,2.0,36.2024,11111222 
TABS,ioos:station:wmo:42050:1,2011-09-06T05:30:00Z,28.8425,-94.2433,2.0,36.2052,11111222 
TABS,ioos:station:wmo:42050:1,2011-09-06T06:00:00Z,28.8425,-94.2433,2.0,36.21,11111222 
TABS,ioos:station:wmo:42050:1,2011-09-06T06:30:00Z,28.8425,-94.2433,2.0,36.21,11111222 
TABS,ioos:station:wmo:42050:1,2011-09-06T07:00:00Z,28.8425,-94.2433,2.0,36.2018,11111222 
TABS,ioos:station:wmo:42050:1,2011-09-06T07:30:00Z,28.8425,-94.2433,2.0,36.1991,11111222 
TABS,ioos:station:wmo:42050:1,2011-09-06T08:00:00Z,28.8425,-94.2433,2.0,36.1999,11111222 
TABS,ioos:station:wmo:42050:1,2011-09-06T08:30:00Z,28.8425,-94.2433,2.0,36.2039,11111222 
TABS,ioos:station:wmo:42050:1,2011-09-06T09:00:00Z,28.8425,-94.2433,2.0,36.21,11111222 
TABS,ioos:station:wmo:42050:1,2011-09-06T09:30:00Z,28.8425,-94.2433,2.0,36.2022,11111222 
TABS,ioos:station:wmo:42050:1,2011-09-06T10:00:00Z,28.8425,-94.2433,2.0,36.2061,11111222 
TABS,ioos:station:wmo:42050:1,2011-09-06T10:30:00Z,28.8425,-94.2433,2.0,36.2038,11111222 
TABS,ioos:station:wmo:42050:1,2011-09-06T11:00:00Z,28.8425,-94.2433,2.0,36.2054,11111222 
TABS,ioos:station:wmo:42050:1,2011-09-06T11:30:00Z,28.8425,-94.2433,2.0,36.2029,11111222 
TABS,ioos:station:wmo:42050:1,2011-09-06T12:00:00Z,28.8425,-94.2433,2.0,36.2039,11111222 
TABS,ioos:station:wmo:42050:1,2011-09-06T12:30:00Z,28.8425,-94.2433,2.0,36.1996,11111222 
TABS,ioos:station:wmo:42050:1,2011-09-06T13:00:00Z,28.8425,-94.2433,2.0,36.2026,11111222 
TABS,ioos:station:wmo:42050:1,2011-09-06T13:30:00Z,28.8425,-94.2433,2.0,36.2036,11111222 
TABS,ioos:station:wmo:42050:1,2011-09-06T14:00:00Z,28.8425,-94.2433,2.0,36.2008,11111222 
TABS,ioos:station:wmo:42050:1,2011-09-06T14:30:00Z,28.8425,-94.2433,2.0,36.2014,11111222 
TABS,ioos:station:wmo:42050:1,2011-09-06T15:00:00Z,28.8425,-94.2433,2.0,36.2045,11111222 
TABS,ioos:station:wmo:42050:1,2011-09-06T15:30:00Z,28.8425,-94.2433,2.0,36.2056,11111222 
TABS,ioos:station:wmo:42050:1,2011-09-06T16:00:00Z,28.8425,-94.2433,2.0,36.2065,11111222 
TABS,ioos:station:wmo:42050:1,2011-09-06T16:30:00Z,28.8425,-94.2433,2.0,36.2051,11111222 
TABS,ioos:station:wmo:42050:1,2011-09-06T17:00:00Z,28.8425,-94.2433,2.0,36.2076,11111222 